Location: Hylvaty SDH
(49.9612°N, 16.4057°E)
Time: 00:42:13
(UTC+02:00)

Vanguard 2 - All Passes

Search period start: 12 August 2020 00:00
Search period end: 22 August 2020 00:00
Orbit: 553 x 2938 km, 32.9° (Epoch: 11 August)

Date Brightness Start Highest point End Pass type
(mag) Time Alt. Az. Time Alt. Az. Time Alt. Az.
12 Aug - 00:37:20 10° WSW 00:48:01 28° SSW 00:55:27 10° SSE visible
12 Aug - 02:53:33 10° SW 02:55:06 10° SW 02:56:32 10° SW visible
12 Aug - 18:26:49 10° S 18:37:15 19° SE 18:46:52 10° ESE daylight
12 Aug - 20:32:36 10° SW 20:46:57 33° SSE 20:58:18 10° ESE visible
12 Aug - 22:42:51 10° WSW 22:56:44 37° S 23:06:31 10° SE visible
13 Aug - 00:55:19 10° WSW 01:05:19 25° SSW 01:12:28 10° SSE visible
13 Aug - 18:42:15 10° SSW 18:54:35 24° SSE 19:05:44 10° ESE daylight
13 Aug - 20:49:34 10° SW 21:04:29 36° S 21:16:08 10° ESE visible
13 Aug - 23:00:27 10° WSW 23:14:14 36° SSW 23:23:57 10° SE visible
14 Aug - 01:13:32 10° WSW 01:22:31 21° SW 01:29:11 10° S visible
14 Aug - 16:57:49 10° SSE 17:02:50 12° SE 17:07:49 10° ESE daylight
14 Aug - 18:58:21 10° SSW 19:11:57 28° SSE 19:24:08 10° ESE daylight
14 Aug - 21:06:46 10° SW 21:22:02 39° S 21:33:51 10° ESE visible
14 Aug - 23:18:11 10° WSW 23:31:41 34° SSW 23:41:16 10° SE visible
15 Aug - 01:32:05 10° WSW 01:39:37 18° SW 01:45:30 10° S visible
15 Aug - 17:10:51 10° S 17:19:56 17° SE 17:28:58 10° ESE daylight
15 Aug - 19:14:51 10° SSW 19:29:21 33° SSE 19:42:14 10° ESE daylight
15 Aug - 21:24:09 10° WSW 21:39:35 40° S 21:51:28 10° ESE visible
15 Aug - 23:36:02 10° WSW 23:49:03 32° SSW 23:58:25 10° SE visible
16 Aug - 01:51:22 10° WSW 01:56:36 13° SW 02:01:03 10° SSW visible
16 Aug - 17:25:51 10° S 17:37:05 21° SE 17:48:18 10° ESE daylight
16 Aug - 19:31:42 10° SW 19:46:49 36° SSE 20:00:11 10° ESE daylight
16 Aug - 21:41:40 10° WSW 21:57:07 40° S 22:08:59 10° ESE visible
16 Aug - 23:54:04 10° WSW 00:06:19 28° SSW 00:15:23 10° SSE visible
17 Aug - 17:41:40 10° SSW 17:54:17 26° SSE 18:06:57 10° E daylight
17 Aug - 19:48:47 10° SW 20:04:19 39° S 20:17:58 10° ESE daylight
17 Aug - 21:59:19 10° WSW 22:14:37 39° SSW 22:26:23 10° SE visible
18 Aug - 00:12:16 10° W 00:23:31 24° SW 00:32:04 10° SSE visible
18 Aug - 15:56:38 10° SSE 16:02:46 13° SE 16:09:12 10° ESE daylight
18 Aug - 17:58:01 10° SSW 18:11:34 31° SSE 18:25:14 10° E daylight
18 Aug - 20:06:03 10° SW 20:21:51 41° S 20:35:39 10° ESE daylight
18 Aug - 22:17:03 10° WSW 22:32:03 37° SSW 22:43:39 10° SE visible
19 Aug - 00:30:48 10° WSW 00:40:35 20° SW 00:48:20 10° S visible
19 Aug - 16:10:39 10° S 16:19:45 18° SE 16:29:33 10° ESE daylight
19 Aug - 18:14:42 10° SW 18:28:55 35° SSE 18:43:17 10° ESE daylight
19 Aug - 20:23:30 10° WSW 20:39:23 42° S 20:53:15 10° ESE visible
19 Aug - 22:34:56 10° WSW 22:49:25 34° SSW 23:00:45 10° SE visible
20 Aug - 00:49:55 10° WSW 00:57:33 16° SW 01:03:58 10° SSW visible
20 Aug - 16:26:03 10° S 16:36:48 23° SE 16:48:40 10° E daylight
20 Aug - 18:31:39 10° SW 18:46:21 38° SSE 19:01:11 10° ESE daylight
20 Aug - 20:41:03 10° WSW 20:56:55 42° S 21:10:43 10° ESE visible
20 Aug - 22:52:58 10° W 23:06:42 30° SSW 23:17:38 10° SSE visible
21 Aug - 01:10:36 10° WSW 01:14:26 11° SW 01:17:57 10° SW visible
21 Aug - 16:42:08 10° SSW 16:53:57 27° SSE 17:07:12 10° E daylight
21 Aug - 18:48:50 10° SW 19:03:49 41° S 19:18:57 10° ESE daylight
21 Aug - 20:58:43 10° WSW 21:14:25 41° SSW 21:28:05 10° SE visible
21 Aug - 23:11:12 10° W 23:23:52 26° SW 23:34:13 10° SSE visible
